TimeEST,TemperatureF,Dew PointF,Humidity,Sea Level PressureIn,VisibilityMPH,Wind Direction,Wind SpeedMPH,Gust SpeedMPH,PrecipitationIn,Events,Conditions,WindDirDegrees,DateUTC
12:54 AM,33.1,30.0,89,29.83,10.0,North,11.5,-,N/A,,Mostly Cloudy,350,2009-12-20 05:54:00
1:54 AM,32.0,28.9,88,29.86,10.0,NNW,10.4,-,N/A,,Scattered Clouds,330,2009-12-20 06:54:00
2:54 AM,32.0,28.0,85,29.88,10.0,NNW,13.8,-,N/A,,Mostly Cloudy,330,2009-12-20 07:54:00
3:23 AM,30.2,28.4,93,29.86,10.0,NNW,9.2,-,N/A,,Mostly Cloudy,340,2009-12-20 08:23:00
3:54 AM,30.9,28.0,89,29.90,10.0,NNW,13.8,19.6,N/A,,Mostly Cloudy,330,2009-12-20 08:54:00
4:54 AM,30.9,27.0,85,29.91,10.0,North,10.4,-,N/A,,Overcast,350,2009-12-20 09:54:00
5:12 AM,30.2,26.6,86,29.88,10.0,North,10.4,20.7,N/A,,Mostly Cloudy,350,2009-12-20 10:12:00
5:25 AM,30.2,26.6,86,29.89,10.0,North,6.9,-,N/A,,Mostly Cloudy,350,2009-12-20 10:25:00
5:54 AM,28.9,26.1,89,29.94,10.0,NNW,17.3,23.0,N/A,,Partly Cloudy,340,2009-12-20 10:54:00
6:54 AM,28.9,26.1,89,29.96,10.0,North,16.1,21.9,N/A,,Clear,350,2009-12-20 11:54:00
7:54 AM,28.9,25.0,85,30.01,10.0,North,8.1,-,N/A,,Partly Cloudy,360,2009-12-20 12:54:00
8:54 AM,30.0,25.0,82,30.05,8.0,North,8.1,17.3,N/A,,Overcast,360,2009-12-20 13:54:00
9:19 AM,30.2,26.6,86,30.02,4.0,North,10.4,16.1,0.00,Snow,Light Snow,10,2009-12-20 14:19:00
9:54 AM,30.9,26.1,82,30.07,8.0,North,13.8,18.4,0.00,,Overcast,360,2009-12-20 14:54:00
10:54 AM,30.9,25.0,79,30.09,10.0,North,10.4,-,0.00,,Overcast,350,2009-12-20 15:54:00
11:44 AM,33.8,24.8,70,30.05,10.0,NNW,16.1,25.3,N/A,,Overcast,340,2009-12-20 16:44:00
11:54 AM,32.0,25.0,75,30.08,10.0,North,15.0,25.3,N/A,,Overcast,350,2009-12-20 16:54:00
12:24 PM,32.0,24.8,75,30.05,10.0,NNW,12.7,18.4,N/A,,Overcast,340,2009-12-20 17:24:00
12:43 PM,33.8,24.8,70,30.05,10.0,NNW,15.0,20.7,N/A,,Overcast,340,2009-12-20 17:43:00
12:54 PM,34.0,24.1,67,30.07,10.0,NNW,15.0,-,N/A,,Mostly Cloudy,340,2009-12-20 17:54:00
1:54 PM,34.0,24.1,67,30.07,10.0,NNW,13.8,20.7,N/A,,Scattered Clouds,340,2009-12-20 18:54:00
2:54 PM,33.1,25.0,72,30.09,10.0,North,9.2,-,N/A,,Overcast,350,2009-12-20 19:54:00
3:54 PM,32.0,25.0,75,30.11,10.0,North,9.2,-,N/A,,Mostly Cloudy,10,2009-12-20 20:54:00
4:54 PM,32.0,25.0,75,30.13,10.0,North,10.4,-,N/A,,Overcast,350,2009-12-20 21:54:00
5:38 PM,30.2,24.8,80,30.09,10.0,North,10.4,-,N/A,,Overcast,360,2009-12-20 22:38:00
5:54 PM,30.0,24.1,79,30.14,10.0,NNW,12.7,-,N/A,,Mostly Cloudy,340,2009-12-20 22:54:00
6:21 PM,30.2,24.8,80,30.09,10.0,North,8.1,-,N/A,,Partly Cloudy,360,2009-12-20 23:21:00
6:54 PM,30.0,24.1,79,30.15,10.0,NNW,9.2,-,N/A,,Mostly Cloudy,340,2009-12-20 23:54:00
7:54 PM,28.0,24.1,85,30.14,10.0,NNW,6.9,-,N/A,,Scattered Clouds,340,2009-12-21 00:54:00
8:54 PM,27.0,23.0,85,30.14,10.0,NNW,9.2,-,N/A,,Clear,340,2009-12-21 01:54:00
9:54 PM,27.0,23.0,85,30.15,10.0,NNW,10.4,-,N/A,,Clear,340,2009-12-21 02:54:00
10:54 PM,26.1,23.0,88,30.16,10.0,NNW,8.1,-,N/A,,Clear,330,2009-12-21 03:54:00
11:54 PM,26.1,23.0,88,30.16,10.0,NNW,9.2,-,N/A,,Partly Cloudy,330,2009-12-21 04:54:00